Location: San Gennaro Vesuviano
(40.8833°N, 14.5333°E)
Time: 23:00:46
(UTC+00:00)

BREEZE M DEB (TANK) - Pass Details

Date: 22 April 2021
Orbit: 273 x 14498 km, 49.5° (Epoch: 10 May)

Event Time Altitude Azimuth Distance (km) Brightness Sun altitude
Rises 20:24:44 0° 269° (W) 5,612 8.0 -25.7°
Reaches altitude 10° 20:30:28 10° 280° (W) 3,064 6.7 -26.4°
Maximum altitude 20:35:25 25° 336° (NNW) 1,139 4.5 -27.0°
Enters shadow 20:36:25 22° 6° (N) 1,090 4.2 -27.1°
